| time (UTC) | temp C | wind direction | speed KPH | gust KPH | rain 1hr cm | rain 24hr cm | rain mn cm | humidity % | barometer mb |
| 20260506080536 | 7 | 358 | 4.8 | 17.7 | 0.00 | 0.03 | 0.00 | 68 | 1007.5 |
| 20260506072516 | 6 | 351 | 1.6 | 14.5 | 0.00 | 0.03 | 0.00 | 75 | 1007.2 |
| 20260506071530 | 6 | 359 | 1.6 | 6.4 | 0.00 | 0.03 | 0.00 | 76 | 1007.2 |
| 20260506070516 | 6 | 348 | 1.6 | 3.2 | 0.00 | 0.03 | 0.00 | 76 | 1007.3 |
| 20260506062517 | 6 | 356 | 1.6 | 6.4 | 0.00 | 0.03 | 0.00 | 83 | 1006.9 |
| 20260506061516 | 7 | 346 | 1.6 | 3.2 | 0.00 | 0.03 | 0.00 | 82 | 1006.8 |
| 20260506060516 | 9 | 349 | 3.2 | 9.7 | 0.00 | 0.03 | 0.00 | 61 | 1006.6 |
| 20260506050516 | 10 | 0.0 | 0.0 | 0.00 | 0.03 | 0.00 | 51 | 1006.4 | |
| 20260506044515 | 10 | 292 | 0.0 | 3.2 | 0.00 | 0.03 | 0.00 | 49 | 1006.5 |
| 20260506043525 | 10 | 280 | 1.6 | 4.8 | 0.00 | 0.03 | 0.00 | 49 | 1006.5 |
| 20260506042556 | 10 | 299 | 0.0 | 3.2 | 0.00 | 0.03 | 0.00 | 49 | 1006.5 |
| 20260506041516 | 10 | 0.0 | 0.0 | 0.00 | 0.03 | 0.00 | 50 | 1006.8 | |
| 20260506040522 | 10 | 295 | 0.0 | 4.8 | 0.00 | 0.03 | 0.00 | 51 | 1006.6 |
| 20260506035537 | 10 | 302 | 0.0 | 4.8 | 0.00 | 0.03 | 0.03 | 51 | 1006.6 |
| 20260506034517 | 11 | 282 | 0.0 | 3.2 | 0.00 | 0.03 | 0.03 | 51 | 1006.7 |
| 20260506033516 | 11 | 296 | 0.0 | 3.2 | 0.00 | 0.03 | 0.03 | 54 | 1006.7 |
| 20260506032516 | 11 | 0.0 | 0.0 | 0.00 | 0.03 | 0.03 | 51 | 1006.6 | |
| 20260506031534 | 11 | 277 | 1.6 | 6.4 | 0.00 | 0.03 | 0.03 | 48 | 1006.8 |
| 20260506030557 | 11 | 294 | 1.6 | 9.7 | 0.00 | 0.03 | 0.03 | 50 | 1006.8 |
| 20260506025521 | 11 | 312 | 0.0 | 4.8 | 0.00 | 0.03 | 0.03 | 54 | 1006.8 |
| 20260506024529 | 11 | 291 | 0.0 | 3.2 | 0.00 | 0.03 | 0.03 | 57 | 1007.0 |
| 20260506023516 | 11 | 288 | 0.0 | 4.8 | 0.00 | 0.03 | 0.03 | 57 | 1006.8 |
| 20260506022515 | 11 | 278 | 1.6 | 4.8 | 0.00 | 0.03 | 0.03 | 57 | 1006.5 |
| 20260506021515 | 11 | 272 | 1.6 | 4.8 | 0.00 | 0.03 | 0.03 | 62 | 1006.6 |
| 20260506020523 | 11 | 306 | 0.0 | 1.6 | 0.00 | 0.03 | 0.03 | 68 | 1006.4 |
| 20260506015516 | 11 | 297 | 0.0 | 1.6 | 0.00 | 0.03 | 0.03 | 73 | 1006.4 |
| 20260506014516 | 11 | 0.0 | 0.0 | 0.00 | 0.03 | 0.03 | 73 | 1006.5 | |
| 20260506013531 | 11 | 0.0 | 0.0 | 0.00 | 0.03 | 0.03 | 73 | 1006.5 | |
| 20260506012517 | 11 | 291 | 0.0 | 1.6 | 0.00 | 0.03 | 0.03 | 74 | 1006.3 |
| 20260506011535 | 11 | 282 | 0.0 | 3.2 | 0.00 | 0.03 | 0.03 | 73 | 1006.3 |
| 20260506010516 | 11 | 220 | 0.0 | 3.2 | 0.00 | 0.03 | 0.03 | 74 | 1006.3 |
| 20260506005516 | 11 | 246 | 0.0 | 4.8 | 0.00 | 0.03 | 0.03 | 73 | 1006.2 |
| 20260506004526 | 11 | 0.0 | 0.0 | 0.00 | 0.03 | 0.03 | 73 | 1006.2 | |
| 20260506003516 | 11 | 290 | 0.0 | 3.2 | 0.00 | 0.03 | 0.03 | 73 | 1005.9 |
| 20260506002528 | 11 | 0.0 | 0.0 | 0.00 | 0.03 | 0.03 | 73 | 1006.0 | |
| 20260506001516 | 12 | 238 | 0.0 | 1.6 | 0.00 | 0.03 | 0.03 | 72 | 1005.9 |
| 20260506000516 | 12 | 246 | 0.0 | 6.4 | 0.00 | 0.03 | 0.03 | 72 | 1005.8 |
| 20260505235515 | 12 | 231 | 1.6 | 4.8 | 0.00 | 0.03 | 0.03 | 71 | 1005.7 |
| 20260505234517 | 12 | 251 | 0.0 | 3.2 | 0.00 | 0.03 | 0.03 | 71 | 1005.5 |
| 20260505233536 | 12 | 273 | 0.0 | 3.2 | 0.00 | 0.03 | 0.03 | 71 | 1005.5 |
| 20260505232516 | 12 | 251 | 1.6 | 3.2 | 0.00 | 0.03 | 0.03 | 72 | 1005.5 |
| 20260505231516 | 12 | 242 | 1.6 | 6.4 | 0.00 | 0.03 | 0.03 | 71 | 1005.6 |
| 20260505230529 | 12 | 250 | 0.0 | 1.6 | 0.00 | 0.03 | 0.03 | 71 | 1005.7 |
| 20260505225537 | 12 | 243 | 1.6 | 6.4 | 0.00 | 0.03 | 0.03 | 71 | 1005.7 |
| 20260505224517 | 12 | 267 | 0.0 | 4.8 | 0.00 | 0.03 | 0.03 | 72 | 1005.7 |
| 20260505223519 | 12 | 281 | 0.0 | 3.2 | 0.00 | 0.03 | 0.03 | 72 | 1005.8 |
| 20260505222536 | 12 | 269 | 0.0 | 3.2 | 0.00 | 0.03 | 0.03 | 74 | 1005.9 |
| 20260505221524 | 12 | 247 | 1.6 | 4.8 | 0.00 | 0.03 | 0.03 | 75 | 1005.8 |
| 20260505220537 | 12 | 226 | 1.6 | 4.8 | 0.00 | 0.03 | 0.03 | 76 | 1005.7 |
| 20260505215517 | 11 | 240 | 1.6 | 6.4 | 0.00 | 0.03 | 0.03 | 76 | 1005.9 |
| 20260505214544 | 11 | 232 | 0.0 | 4.8 | 0.00 | 0.03 | 0.03 | 77 | 1005.8 |
| 20260505213516 | 11 | 251 | 1.6 | 6.4 | 0.00 | 0.03 | 0.03 | 77 | 1006.0 |
| 20260505212516 | 11 | 233 | 1.6 | 6.4 | 0.00 | 0.03 | 0.03 | 77 | 1005.7 |
| 20260505211517 | 11 | 226 | 3.2 | 12.9 | 0.00 | 0.03 | 0.03 | 77 | 1005.8 |
| 20260505210517 | 11 | 277 | 0.0 | 3.2 | 0.00 | 0.03 | 0.03 | 77 | 1006.0 |
| 20260505205516 | 11 | 211 | 1.6 | 6.4 | 0.00 | 0.03 | 0.03 | 76 | 1005.9 |
| 20260505204516 | 11 | 272 | 1.6 | 4.8 | 0.00 | 0.03 | 0.03 | 75 | 1005.8 |
| 20260505203515 | 11 | 226 | 3.2 | 11.3 | 0.00 | 0.03 | 0.03 | 76 | 1005.8 |
| 20260505202515 | 11 | 165 | 1.6 | 11.3 | 0.00 | 0.03 | 0.03 | 77 | 1006.0 |
| 20260505201525 | 10 | 184 | 1.6 | 6.4 | 0.00 | 0.03 | 0.03 | 77 | 1006.2 |
| 20260505200530 | 8 | 329 | 0.0 | 1.6 | 0.00 | 0.03 | 0.03 | 78 | 1006.3 |
| 20260505195516 | 8 | 23 | 0.0 | 1.6 | 0.00 | 0.03 | 0.03 | 76 | 1006.3 |
| 20260505194526 | 8 | 74 | 1.6 | 6.4 | 0.00 | 0.03 | 0.03 | 76 | 1006.4 |
| 20260505193517 | 8 | 27 | 0.0 | 3.2 | 0.00 | 0.03 | 0.03 | 76 | 1006.6 |
| 20260505192532 | 8 | 342 | 1.6 | 4.8 | 0.00 | 0.03 | 0.03 | 77 | 1006.5 |
| 20260505191517 | 8 | 348 | 1.6 | 4.8 | 0.00 | 0.03 | 0.03 | 74 | 1006.4 |
| 20260505190520 | 8 | 343 | 0.0 | 3.2 | 0.00 | 0.03 | 0.03 | 72 | 1006.4 |
| 20260505185516 | 8 | 345 | 1.6 | 4.8 | 0.00 | 0.03 | 0.03 | 73 | 1006.2 |
| 20260505184516 | 8 | 353 | 1.6 | 4.8 | 0.00 | 0.03 | 0.03 | 73 | 1006.1 |
| 20260505183658 | 8 | 43 | 0.0 | 3.2 | 0.00 | 0.03 | 0.03 | 73 | 1006.1 |
| 20260505182550 | 8 | 360 | 0.0 | 3.2 | 0.03 | 0.03 | 0.03 | 76 | 1006.2 |
| 20260505181536 | 8 | 330 | 0.0 | 3.2 | 0.03 | 0.03 | 0.03 | 73 | 1006.0 |
| 20260505180531 | 9 | 333 | 0.0 | 3.2 | 0.03 | 0.03 | 0.03 | 72 | 1005.7 |
| 20260505175515 | 8 | 0.0 | 0.0 | 0.03 | 0.03 | 0.03 | 72 | 1006.0 | |
| 20260505174517 | 9 | 26 | 0.0 | 1.6 | 0.03 | 0.03 | 0.03 | 73 | 1005.5 |
| 20260505173533 | 8 | 69 | 0.0 | 4.8 | 0.03 | 0.03 | 0.03 | 73 | 1005.8 |
| 20260505172520 | 8 | 355 | 0.0 | 3.2 | 0.00 | 0.00 | 0.00 | 73 | 1005.8 |
| 20260505171515 | 7 | 334 | 0.0 | 3.2 | 0.00 | 0.00 | 0.00 | 76 | 1005.8 |
| 20260505170517 | 7 | 36 | 0.0 | 3.2 | 0.00 | 0.00 | 0.00 | 75 | 1005.7 |
| 20260505165516 | 7 | 334 | 0.0 | 1.6 | 0.00 | 0.00 | 0.00 | 74 | 1005.6 |
| 20260505164544 | 7 | 332 | 0.0 | 1.6 | 0.00 | 0.00 | 0.00 | 74 | 1005.8 |
| 20260505163516 | 7 | 14 | 0.0 | 3.2 | 0.00 | 0.00 | 0.00 | 73 | 1005.8 |
| 20260505162515 | 7 | 348 | 0.0 | 4.8 | 0.00 | 0.00 | 0.00 | 71 | 1005.9 |
| 20260505161517 | 8 | 347 | 1.6 | 4.8 | 0.00 | 0.00 | 0.00 | 69 | 1006.1 |
| 20260505160517 | 8 | 333 | 0.0 | 3.2 | 0.00 | 0.00 | 0.00 | 69 | 1006.2 |
| 20260505152517 | 8 | 356 | 0.0 | 1.6 | 0.00 | 0.00 | 0.00 | 65 | 1005.3 |
| 20260505151516 | 8 | 94 | 1.6 | 9.7 | 0.00 | 0.00 | 0.00 | 65 | 1005.1 |
| 20260505150516 | 8 | 15 | 1.6 | 4.8 | 0.00 | 0.00 | 0.00 | 61 | 1005.3 |
| 20260505140523 | 8 | 349 | 1.6 | 6.4 | 0.00 | 0.00 | 0.00 | 68 | 1004.1 |
| 20260505124540 | 8 | 6 | 3.2 | 9.7 | 0.00 | 0.00 | 0.00 | 69 | 1003.5 |
| 20260505123525 | 8 | 344 | 1.6 | 9.7 | 0.00 | 0.00 | 0.00 | 71 | 1003.4 |
| 20260505122522 | 8 | 357 | 3.2 | 14.5 | 0.00 | 0.00 | 0.00 | 71 | 1003.0 |
| 20260505121555 | 8 | 355 | 3.2 | 14.5 | 0.00 | 0.00 | 0.00 | 72 | 1003.0 |
| 20260505120517 | 8 | 18 | 1.6 | 4.8 | 0.00 | 0.00 | 0.00 | 72 | 1002.7 |
| 20260505115536 | 8 | 347 | 1.6 | 9.7 | 0.00 | 0.00 | 0.00 | 72 | 1002.7 |
| 20260505114516 | 8 | 351 | 3.2 | 14.5 | 0.00 | 0.00 | 0.00 | 72 | 1002.4 |
| 20260505113522 | 8 | 347 | 3.2 | 11.3 | 0.00 | 0.00 | 0.00 | 72 | 1002.2 |
| 20260505112517 | 7 | 352 | 1.6 | 6.4 | 0.00 | 0.00 | 0.00 | 73 | 1002.0 |
| 20260505111516 | 7 | 355 | 4.8 | 14.5 | 0.00 | 0.00 | 0.00 | 73 | 1002.1 |
| 20260505110515 | 8 | 349 | 3.2 | 16.1 | 0.00 | 0.00 | 0.00 | 72 | 1001.8 |
| 20260505101515 | 8 | 19 | 1.6 | 12.9 | 0.00 | 0.00 | 0.00 | 79 | 1000.5 |
| 20260505100537 | 8 | 357 | 3.2 | 11.3 | 0.00 | 0.00 | 0.00 | 80 | 1000.6 |
| 20260505095516 | 7 | 1 | 6.4 | 16.1 | 0.00 | 0.00 | 0.00 | 82 | 1000.4 |
| 20260505094539 | 10 | 355 | 4.8 | 11.3 | 0.00 | 0.00 | 0.00 | 79 | 1000.0 |
| 20260505093518 | 15 | 0.0 | 0.0 | 0.00 | 0.00 | 0.00 | 74 | 999.3 | |
| 20260505092516 | 15 | 255 | 0.0 | 1.6 | 0.00 | 0.00 | 0.00 | 73 | 998.9 |
| 20260505091517 | 15 | 246 | 1.6 | 9.7 | 0.00 | 0.00 | 0.00 | 72 | 998.8 |
| 20260505090516 | 15 | 249 | 1.6 | 11.3 | 0.00 | 0.00 | 0.00 | 71 | 998.6 |
| 20260505085516 | 15 | 241 | 1.6 | 9.7 | 0.00 | 0.00 | 0.00 | 71 | 998.4 |
| 20260505084516 | 15 | 243 | 1.6 | 11.3 | 0.00 | 0.00 | 0.00 | 71 | 998.3 |
| 20260505083517 | 16 | 295 | 1.6 | 6.4 | 0.00 | 0.00 | 0.00 | 70 | 998.2 |
| 20260505082537 | 16 | 250 | 1.6 | 9.7 | 0.00 | 0.00 | 0.00 | 70 | 998.1 |
| 20260505081535 | 16 | 261 | 3.2 | 9.7 | 0.00 | 0.00 | 0.00 | 69 | 997.9 |